User: anonymous   Login
Location: Fort Wayne
(41.1310°N, 85.1290°W)
Time: 03:07:39
(UTC-05:00)
Language:

Cosmos 1953 - Orbit

View from above orbital plane
View from above orbital plane
View from above satellite
View from above satellite

Ground track
Ground track

The orbit data is extracted from the following two-line orbital elements,

1 19210U 88050A   14328.13845467  .00003482  00000-0  25808-3 0  5719
2 19210 082.5198 219.6655 0013478 202.3313 157.7327 15.02760664437103
Epoch (UTC): 24 November 2014 03:19:22
Eccentricity: 0.0013478
inclination: 82.5198°
perigee height: 549 km
apogee height: 568 km
right ascension of ascending node: 219.6655°
argument of perigee: 202.3313°
revolutions per day: 15.02760664
mean anomaly at epoch: 157.7327°
orbit number at epoch: 43710

The dashed part of the orbit path shows where the satellite is in the earth's shadow,  

DLR